STARLINK-4599 (53631 NORAD) Tracking and Keplerian Element Data

This shows tracking and keplerian element data for the satellite.

Feedback or suggestion? Click here.




ElementValue
Catalog53631
NameSTARLINK-4599
Epoch Orbit1325
Epoch Day325.33334491
Epoch Year2022
RAAN240.2846
Inclination53.2175
Eccentricity0.0001961
Argument of Perigee35.6426
Mean Anonmoly328.6074
Mean Motion15.08844606
Decay Rate-9.768E-05
L11 53631U 22104AV 22325.33334491 -.00009768 00000+0 -59637-3 0 9995
L22 53631 53.2175 240.2846 0001961 35.6426 328.6074 15.08844606 13255



Live tracking and technical data element details for STARLINK-4599 (NORAD 53631). STARLINK-4599 can be tracked NOW for your location showing map with azimuth and elevation plus other details from your city location.







IsCatalogInMostPopularTable: catalog: 53631, numindb: 6
Update: records affected: 1



GetName: 53631 STARLINK-4599

Hit Count: updated at: Tue, 29 Nov 2022 02:16:49 GMT